This is the latest recevied weather packets stored in our database for station/object DH9NFM-12. If no packets are shown the sender has not sent any weather packets the latest 10 day(s).
| Time | Temp. | Humidity | Pressure | Rain* | Wind** | Luminosity | Snow |
|---|---|---|---|---|---|---|---|
| 1777369687 | 15° C | 48% | 1018.8 hPa | 0 mm | - | - | - |
| 1777369063 | 13.89° C | 48% | 1018.9 hPa | 0 mm | - | - | - |
| 1777368438 | 15° C | 46% | 1018.9 hPa | 0 mm | - | - | - |
| 1777367813 | 14.44° C | 48% | 1018.9 hPa | 0 mm | - | - | - |
| 1777367189 | 15° C | 47% | 1018.9 hPa | 0 mm | - | - | - |
| 1777366564 | 14.44° C | 49% | 1018.8 hPa | 0 mm | - | - | - |
| 1777365939 | 15° C | 50% | 1018.9 hPa | 0 mm | - | - | - |
| 1777365315 | 14.44° C | 51% | 1018.7 hPa | 0 mm | - | - | - |
| 1777364690 | 13.33° C | 50% | 1018.7 hPa | 0 mm | - | - | - |
| 1777364066 | 13.33° C | 52% | 1018.8 hPa | 0 mm | - | - | - |
| 1777363441 | 13.33° C | 51% | 1018.7 hPa | 0 mm | - | - | - |
| 1777362816 | 12.78° C | 54% | 1018.7 hPa | 0 mm | - | - | - |
| 1777362192 | 11.67° C | 54% | 1018.7 hPa | 0 mm | - | - | - |
| 1777361567 | 12.78° C | 53% | 1018.7 hPa | 0 mm | - | - | - |
| 1777360942 | 12.22° C | 55% | 1018.5 hPa | 0 mm | - | - | - |
| 1777360318 | 11.67° C | 58% | 1018.5 hPa | 0 mm | - | - | - |
| 1777359693 | 11.11° C | 58% | 1018.5 hPa | 0 mm | - | - | - |
| 1777359068 | 10.56° C | 59% | 1018.6 hPa | 0 mm | - | - | - |
| 1777358444 | 10° C | 62% | 1018.6 hPa | 0 mm | - | - | - |
| 1777357819 | 9.44° C | 62% | 1018.5 hPa | 0 mm | - | - | - |
| 1777357194 | 9.44° C | 64% | 1018.4 hPa | 0 mm | - | - | - |
| 1777356570 | 8.89° C | 63% | 1018.4 hPa | 0 mm | - | - | - |
| 1777355945 | 8.89° C | 64% | 1018.4 hPa | 0 mm | - | - | - |
| 1777355321 | 7.78° C | 66% | 1018.4 hPa | 0 mm | - | - | - |
| 1777354696 | 7.78° C | 65% | 1018.4 hPa | 0 mm | - | - | - |
* Rain latest hour (hover to see other rain measurements)
** Current wind speed in m/s (hover to see current wind gust speed)